Other Public Products
Issued by NWS Grand Forks, ND

Home | Current Version | Previous Version | Text Only | Print | Product List | Glossary Off
Versions: 1 2 3 4 5 6 7 8 9 10 11 12 13 14 15 16 17 18 19 20 21 22 23 24 25 26 27 28 29 30 31 32 33 34 35 36 37 38 39 40 41 42 43 44 45 46 47 48 49 50

000
FPUS83 KFGF 280231
OPUFGF
PRAIRIE TO PINES WEATHER ROUNDUP
NATIONAL WEATHER SERVICE EASTERN NORTH DAKOTA/GRAND FORKS ND
900 PM CDT FRI MAR 27 2015

 **SATELLITE DATA USED TO AUGMENT SKY COVER AT AUTOMATED STATIONS**
 *****  WEATHER ACROSS EASTERN NORTH DAKOTA  *****

CITY           SKY/WX    TMP DP  RH WIND       PRES   REMARKS
GRAND FORKS    CLOUDY    30  22  72 S9        30.09R WCI  22
GRAND FORKS AF CLOUDY    29  24  81 SE10      30.08R WCI  20
GRAND CITY NWS   N/A     30 N/A N/A S6          N/A  WCI  24
BUXTON           N/A     29  28  96 SE6         N/A  WCI  23
DEVILS LAKE    CLOUDY    28  25  86 SE14      30.01R WCI  17
FARGO          LGT SNOW  31  23  72 SE10      30.11R WCI  22
WAHPETON ARPT  CLOUDY    30  21  69 SE8       30.12R WCI  23
$$

 *****  WEATHER ACROSS CENTRAL AND WESTERN NORTH DAKOTA  *****

CITY           SKY/WX    TMP DP  RH WIND       PRES   REMARKS
JAMESTOWN      CLOUDY    29  27  92 S13       30.01R FOG     WCI  19
BISMARCK       MOCLDY    41  33  73 NE9       29.92R
MINOT          MOCLDY    34  30  85 E6        29.94R
MINOT AFB      CLOUDY    36  36 100 E5        29.93R
GARRISON         N/A     45  38  76 NE5       29.91R
WILLISTON      PTCLDY    44  35  70 N5        29.89R
DICKINSON      CLOUDY    49  35  58 E9        29.90R
HETTINGER      CLOUDY    51  34  52 NE9       29.92R
$$

 *****  OTHER OBSERVATIONS NORTHEAST NORTH DAKOTA  *****

CITY           SKY/WX    TMP DP  RH WIND       PRES   REMARKS
WALHALLA         N/A     28  28 100 S6        30.09R WCI  22
LANGDON        NOT AVBL
CAVALIER       CLOUDY    28  25  86 SE5       30.09R WCI  23
GRAFTON        NOT AVBL
CANDO          CLOUDY    28  28 100 S13       30.01R FOG     WCI  18
FORT TOTTEN      N/A     28  28  99 S12       29.95S WCI  18
ROLLA          CLOUDY    27  27 100 SE12      29.99S FOG     WCI  16
RUGBY            N/A     28  28 100 SE12      29.98R WCI  18
 ***** THE ABOVE OBSERVATIONS ARE NON NWS ARE NOT QUALITY
        CONTROLLED AND MAY MIS-REPORT RAIN FOR SNOW...
$$

 *****  OTHER OBSERVATIONS SOUTHEAST NORTH DAKOTA *****

CITY           SKY/WX    TMP DP  RH WIND       PRES   REMARKS
COOPERSTOWN    NOT AVBL
VALLEY CITY    CLOUDY    28  28 100 SE16      30.04R FOG     WCI  17
OAKES            N/A     30  30 100 SE15      30.04S FOG     WCI  19
GWINNER          N/A     32  32 100 SE14        N/A  WCI  22
SHEYENNE NWR     N/A     28  26  92 SE8       29.95S WCI  20
BUFFALO        NOT AVBL
WYNDMERE         N/A     28  28 100 SE7         N/A  WCI  21
 ***** THE ABOVE OBSERVATIONS ARE NON NWS ARE NOT QUALITY
       CONTROLLED AND MAY MIS-REPORT RAIN FOR SNOW...
$$

  *****  WEATHER ACROSS NORTHERN MINNESOTA  *****

CITY           SKY/WX    TMP DP  RH WIND       PRES   REMARKS
FLAG ISLAND    CLEAR     21   9  58 CALM      30.11S
WARROAD        CLEAR     25  18  74 CALM      30.12R
ROSEAU         CLOUDY    28  19  69 SW3       30.12R
HALLOCK        PTCLDY    28  23  80 SE9       30.11R WCI  20
THF RVR FALLS  PTCLDY    28  18  64 CALM      30.11R
HALSTAD          N/A     29  14  52 S6          N/A  WCI  23
FOSSTON        PTCLDY    23  14  68 CALM      30.10R
BAUDETTE       PTCLDY    26   8  46 E5        30.10R WCI  20
WASKISH        CLOUDY    25  10  54 CALM      30.11S
CROOKSTON      CLOUDY    28  19  69 S6        30.11S WCI  22
$$
  *****  WEATHER ACROSS CENTRAL AND WEST MINNESOTA  *****

CITY           SKY/WX    TMP DP  RH WIND       PRES   REMARKS
BEMIDJI        MOCLDY    30   6  36 SW3       30.10R
PARK RAPIDS    CLOUDY    29  10  45 SW5       30.09R WCI  24
WADENA         CLOUDY    27  12  54 S3        30.11R
DETROIT LAKES  PTCLDY    30  14  51 CALM      30.11R
MOORHEAD       CLOUDY    32  21  64 S7        30.12R
FERGUS FALLS   CLOUDY    28  12  50 S7        30.14R WCI  21
ELBOW LAKE     CLOUDY    31  17  56 E8        30.11S WCI  23
MORRIS MN      CLOUDY    32  19  59 SE6       30.10S
STAPLES        CLOUDY    27  12  54 CALM      30.12S
WHEATON        CLOUDY    28  19  69 S3        30.12S
$$
  *****  WEATHER ELSEWHERE ACROSS MINNESOTA  *****

CITY           SKY/WX    TMP DP  RH WIND       PRES   REMARKS
DULUTH         MOCLDY    23  11  60 E8        30.13R WCI  14
INTRNTL FALLS  CLEAR     23  11  60 W3        30.11R
ELY            CLEAR     23   9  54 SE7       30.12R WCI  15
CLOQUET        MOCLDY    25   7  46 E3        30.14R
BRAINERD       CLOUDY    28   8  43 SE5       30.12S WCI  23
HIBBING        PTCLDY    23   6  48 CALM      30.10S
ALEXANDRIA     CLOUDY    29  15  56 SE3       30.11S
SAINT CLOUD    MOCLDY    27  12  53 SW5       30.15R WCI  22
MINNEAPOLIS    MOCLDY    29   3  33 S7        30.17S WCI  22
$$

  *****  WEATHER ACROSS SOUTH DAKOTA  *****

CITY           SKY/WX    TMP DP  RH WIND       PRES   REMARKS
SIOUX FALLS    CLOUDY    33  22  63 S14       30.05S WCI  23
BROOKINGS      NOT AVBL
WATERTOWN      CLOUDY    30  24  78 SE7       30.04R WCI  23
HURON          MOCLDY    31  28  89 SE8       30.01R WCI  23
SISSETON         N/A     29  27  92 SE7       30.08R WCI  22
ABERDEEN       CLOUDY    32  27  81 SE7       30.03R
MITCHELL       CLOUDY    34  27  75 S12       30.01F
PIERRE         CLEAR     37  31  78 SE10      29.92R
MOBRIDGE       MOCLDY    42  32  67 E9        29.91R
RAPID CITY     MOCLDY    49  33  54 NW9       29.93R
$$

  *****  SOME WEATHER IN NEARBY STATES *****

CITY           SKY/WX    TMP DP  RH WIND       PRES   REMARKS
GLASGOW MT     MOCLDY    61  34  36 CALM      29.85F
GREAT FALLS MT PTCLDY    55  32  41 SW13      29.92F
CHEYENNE WY    PTCLDY    57  23  26 N7        30.11R
SCOTTSBLUFF NE MOCLDY    57  33  40 N8        29.99R
OMAHA NE       CLOUDY    37  17  44 SE8       30.12F
DES MOINES IA  CLOUDY    38   8  29 SE5       30.16S
DAVENPORT IA   CLEAR     27  10  49 E7        30.18S WCI  19
CHICAGO IL     CLEAR     24  13  62 NE8       30.20R WCI  15
EAU CLAIRE WI  CLEAR     27   6  41 SE5       30.16R WCI  22
LA CROSSE WI   CLEAR     28  13  53 NW7       30.18R WCI  21
$$

  *****  SOME NATIONAL WEATHER *****

CITY           SKY/WX    TMP DP  RH WIND       PRES   REMARKS
LA GUARDIA NY  CLOUDY    43  28  55 N6        29.78R
RALEIGH NC     MOCLDY    40  37  89 CALM      29.82R
ATLANTA GA     PTCLDY    47  29  49 NW15G23   29.95R
NEW ORLEANS LA PTCLDY    62  44  51 W3        30.07R
OKLAHOMA CITY  PTCLDY    50  35  56 CALM      30.14S
ALBUQUERQUE NM PTCLDY    71  14  11 NW10      30.15R
SALT LAKE CITY CLEAR     62  36  37 N8        30.14F
LOS ANGELES CA CLEAR     67  53  61 W7        30.00S
BOISE ID       CLEAR     73  41  31 SE5       29.97F
SEATTLE WA     MOCLDY    57  48  72 SW9G18    29.98R
$$

*** WEATHER ACROSS MANITOBA...SASKATCHEWAN AND ONTARIO ***
                ***ONTARIO***

CITY           SKY/WX    TMP DP  RH WIND       PRES   REMARKS
GERALDTON      CLEAR      9  -6  52 SW5       30.13R WCI   0
THUNDER BAY    CLEAR     19   9  63 S2        30.20R
SIOUX LOOKOUT  CLEAR     16   3  57 N5        30.11R WCI   9
TORONTO        MOCLDY    19   7  58 N17G25    30.03R WCI   4
BIG TROUT LK   CLEAR     16   1  53 W7        30.02S WCI   6
PICKLE LAKE    CLEAR     19   0  42 W6        30.07S WCI  11
DRYDEN         CLEAR     25   1  36 W3        30.11R
KENORA         PTCLDY    25   3  39 S3        30.10R
$$
                *** MANITOBA***

CITY           SKY/WX    TMP DP  RH WIND       PRES   REMARKS
BRANDON        CLOUDY    28  28 100 SE6       30.02R WCI  22
DAUPHIN        CLOUDY    30  28  93 E3        30.02R
ISLAND LAKE    CLEAR     23  10  58 S3        30.05
PILOT MOUND      N/A     28  28 100 SE13        N/A  WCI  18
THE PAS        CLOUDY    30  25  80 S10       29.98F WCI  21
THOMPSON       PTCLDY    32  16  51 S7        29.94F
WINNIPEG       FLURRIES  28  25  86 S9        30.11R WCI  20
LYNN LAKE      PTCLDY    32  18  55 SW5       29.84F
CHURCHILL      CLEAR     28  19  69 W10       29.79F WCI  19
GILLAM         CLEAR     28  16  59 SW9       29.93F WCI  20
$$
                ***SASKATCHEWAN***

CITY           SKY/WX    TMP DP  RH WIND       PRES   REMARKS
ESTEVAN        CLOUDY    37  36  93 NE9       29.93R
KINDERSLEY     MOCLDY    48  43  81 SE12      29.79F
LLOYDMINSTER   PTCLDY    41  36  81 SE9       29.75F
PRINCE ALBERT  CLOUDY    34  30  86 SE8       29.91F
REGINA         MOCLDY    37  34  87 E9        29.91S


USA.gov is the U.S. government's official web portal to all federal, state and local government web resources and services.